RH
18 16 19 19 18 23 20 19 23 20 23 66 68 64 58 69 65 67 97 88 99 99 96 91 68 60 53 46 46 49 56 63 61 55 49 46 50 56 60 50 43 64 75 79 62 51 65 71 71
19 28 24 20 18 18 15 18 29 49 53 71 69 74 77 88 80 92 86 93 100 99 95 97 85 65 60 57 58 62 64 60 56 49 43 66 62 66 71 60 53 69 71 57 57 56 50 69 74
24 22 22 20 22 16 14 14 36 46 56 67 72 73 78 85 82 87 90 97 99 100 97 96 90 90 88 90 90 94 95 57 59 40 51 72 69 78 69 60 62 62 52 56 54 49 52 68 74
20 16 17 20 19 16 14 20 62 63 56 60 71 72 76 95 91 87 92 93 98 99 97 88 82 87 90 91 94 94 74 65 65 50 63 71 83 84 69 70 59 55 59 56 57 53 53 68 74
18 18 21 20 17 13 24 52 60 62 63 63 64 77 85 96 97 89 97 99 99 96 97 79 71 83 88 80 62 50 52 56 49 52 70 74 75 74 69 62 52 49 47 46 52 58 64 68 67
21 18 19 19 18 15 44 56 60 60 59 64 72 78 87 99 100 100 97 87 88 99 92 80 67 70 72 64 51 49 54 41 44 38 47 45 51 54 52 47 49 47 46 48 48 47 48 52 42
22 22 22 20 19 16 35 60 57 56 56 67 67 81 91 97 100 100 93 93 98 99 94 86 77 75 68 59 61 52 41 51 44 24 34 41 41 41 43 44 48 53 55 53 50 50 51 48 48
21 20 22 20 19 18 36 59 65 59 62 61 65 70 80 97 100 98 95 96 100 100 100 100 95 86 69 63 71 72 62 50 23 35 40 42 40 39 40 45 52 61 61 59 57 55 53 53 55
18 22 23 21 19 18 57 60 64 60 58 76 81 74 81 100 100 100 100 100 100 100 100 100 100 92 87 67 60 62 54 33 36 42 45 45 46 45 44 49 55 64 63 61 59 57 56 56 57
19 23 20 17 16 35 56 62 57 58 62 78 79 83 98 100 100 99 99 100 100 100 100 95 89 89 81 69 50 52 43 36 44 44 46 47 48 48 57 59 61 62 67 63 60 58 57 56 56
20 21 19 15 19 48 52 58 58 56 56 62 73 94 96 99 99 96 100 100 100 100 100 100 89 68 55 61 67 60 54 46 48 50 54 54 59 62 62 67 69 67 63 59 56 55 54 52 50
22 18 18 23 50 49 46 55 59 55 60 66 65 75 84 91 97 99 99 100 98 100 98 83 79 70 61 78 60 58 57 53 57 56 60 62 66 72 74 74 73 67 62 60 57 54 52 50 46
21 26 42 42 48 48 50 53 56 80 81 69 74 83 86 88 96 99 99 97 92 95 97 97 92 79 92 68 57 53 56 50 56 67 72 72 74 78 79 76 68 64 61 59 56 52 44 35 31
32 40 46 50 48 47 40 49 47 73 75 82 84 82 80 87 94 97 94 100 89 84 78 80 66 72 86 76 62 50 55 65 72 76 79 78 75 75 76 70 66 62 59 53 44 35 29 25 24
37 39 37 43 43 39 39 44 57 73 76 79 83 86 88 88 94 91 96 96 92 88 72 78 86 87 95 79 56 54 56 66 73 77 82 81 80 74 70 65 62 57 49 42 37 31 27 26 27
34 34 37 33 38 36 35 41 63 74 75 71 76 78 77 78 88 86 85 86 90 87 76 75 78 78 87 74 55 56 65 78 91 89 86 85 81 74 68 65 58 50 46 43 37 30 27 28 41
29 32 36 30 32 32 34 43 53 71 70 61 69 67 79 78 73 75 76 79 78 81 83 91 85 85 90 70 55 61 75 87 91 90 87 83 77 73 70 63 51 48 47 44 32 30 29 42 44
33 33 33 32 27 32 31 39 54 68 72 61 68 71 77 76 69 68 71 74 74 80 86 83 85 90 82 70 70 86 94 97 94 90 93 83 78 75 63 51 48 49 46 42 33 32 34 42 46
29 32 34 31 26 29 32 37 54 63 73 74 70 68 67 79 62 67 71 75 77 80 81 74 77 85 77 75 87 100 100 100 96 89 84 80 73 61 50 47 49 50 49 38 36 37 41 51 49
34 34 32 30 28 33 34 32 40 56 65 67 65 71 64 62 69 70 76 79 76 71 76 70 76 81 81 77 79 91 96 97 88 87 81 72 57 48 48 48 50 52 46 37 39 44 56 61 54
35 36 36 32 32 32 35 30 37 45 54 61 62 61 64 64 62 66 72 80 85 83 80 81 86 84 85 83 81 88 90 87 85 77 64 57 53 54 54 53 53 50 39 40 44 50 56 58 64
39 33 33 37 33 30 28 30 28 35 49 57 60 64 65 68 66 59 65 72 80 80 84 86 85 81 85 84 85 84 86 85 81 74 62 60 62 60 58 57 52 45 43 46 50 55 57 54 56
34 34 35 34 34 34 35 30 24 39 41 43 49 55 58 58 62 62 61 64 76 82 78 82 82 78 82 82 86 84 84 80 69 64 63 65 69 67 62 58 50 47 48 51 54 52 50 47 52
34 36 36 40 41 43 37 33 28 26 31 35 36 44 51 56 58 58 60 64 73 82 84 86 88 93 89 86 89 89 80 80 76 66 70 71 68 65 62 58 52 52 52 57 53 44 37 36 44
33 36 41 45 47 42 40 41 31 30 27 28 30 41 44 51 59 60 59 66 74 88 92 89 95 98 95 92 91 98 86 84 81 69 73 74 71 67 62 57 57 55 79 81 53 36 35 35 44
36 35 47 39 44 37 42 41 25 29 28 33 38 38 42 47 52 55 55 62 75 85 90 90 89 92 98 97 100 99 89 86 88 75 69 65 68 69 62 58 55 62 83 54 39 38 39 38 44
41 40 37 53 56 57 43 33 22 27 31 35 37 50 42 45 48 49 54 64 72 83 90 80 90 92 100 100 100 99 92 89 84 75 69 73 72 67 59 58 70 90 53 42 39 40 43 44 49
35 39 46 50 50 47 36 36 28 24 24 33 37 42 50 54 52 51 56 67 75 80 83 87 91 92 99 100 100 96 93 95 90 81 80 78 70 62 63 76 92 74 44 40 41 44 47 49 50
44 43 44 41 46 46 47 34 31 27 27 32 34 40 45 55 57 59 66 70 76 82 83 92 96 100 100 100 99 98 98 98 98 91 82 69 64 72 80 87 65 52 41 41 44 47 50 52 64
34 37 41 54 46 54 51 42 26 29 30 32 35 39 41 54 56 64 72 81 83 85 89 98 100 100 99 99 100 99 97 93 93 86 69 67 67 90 76 56 45 42 44 46 48 50 55 68 76
Wind_Speed
3 4 3 2 3 0 2 2 2 2 4 3 3 2 5 4 3 0 2 9 23 34 30 31 34 35 35 35 34 32 30 28 26 25 24 22 23 25 25 24 25 24 21 19 19 20 22 23 23
4 2 2 2 1 3 2 2 4 5 5 2 0 1 2 1 4 5 9 18 29 33 31 29 33 35 35 35 33 32 29 27 25 24 23 23 26 25 25 25 26 24 22 22 21 21 22 25 23
2 3 1 3 2 3 2 3 5 7 4 3 1 4 2 1 4 11 8 24 29 30 31 31 35 35 34 33 32 28 26 25 24 24 24 24 25 24 26 26 25 24 23 24 24 24 26 25 23
2 3 2 1 3 4 4 2 2 4 1 1 3 1 2 4 0 8 18 25 30 32 30 35 37 36 34 33 30 28 26 25 24 26 24 24 24 24 27 26 25 25 24 24 24 25 26 24 21
5 2 1 1 4 4 6 2 1 2 3 1 1 1 3 4 3 15 19 23 30 33 30 36 35 34 35 32 30 28 27 26 26 26 24 23 25 26 27 26 25 25 25 24 23 23 23 21 19
2 1 1 1 4 5 6 1 3 1 1 1 2 3 2 4 12 14 18 21 26 29 30 32 32 32 32 30 29 29 28 26 26 26 23 25 26 27 27 26 24 24 24 23 22 21 19 19 19
3 2 1 3 4 5 3 2 1 1 2 2 2 3 2 4 13 17 19 21 23 26 28 29 29 30 29 26 28 28 28 28 26 25 23 25 26 26 26 24 22 21 20 21 21 20 21 21 18
3 1 2 3 2 4 2 1 1 2 2 2 0 3 5 5 19 19 15 15 17 22 29 28 30 29 24 22 26 26 27 27 25 24 24 25 24 23 22 21 20 20 19 20 21 20 20 19 16
3 1 2 4 2 3 1 1 1 2 3 2 3 0 4 19 22 21 21 22 22 25 24 31 30 27 18 22 22 21 21 23 25 25 25 24 23 21 19 17 16 18 19 21 20 19 18 18 16
2 3 7 5 4 3 1 2 3 3 3 2 2 4 14 19 17 18 16 15 21 26 31 36 40 33 31 19 18 18 20 24 26 26 24 23 22 20 18 16 14 15 19 19 18 18 17 16 15
4 5 2 3 7 3 3 3 2 1 3 4 6 12 10 14 14 16 12 17 18 25 32 37 35 34 31 23 19 20 22 25 25 24 23 22 21 19 17 16 14 17 17 19 18 17 15 14 12
3 4 4 3 1 2 3 3 3 1 3 6 8 14 12 10 9 13 18 24 20 27 44 38 34 27 19 17 19 20 21 25 25 24 22 21 19 18 16 15 17 16 16 16 14 14 13 12 10
4 3 1 3 3 3 5 5 2 6 7 5 12 11 10 8 13 18 26 27 31 24 37 35 30 24 17 19 20 21 22 23 23 21 19 17 17 15 16 18 19 17 15 13 12 11 10 10 10
3 1 3 1 2 3 3 1 2 2 3 7 7 7 7 9 17 21 30 26 28 32 34 36 34 20 8 14 18 20 21 22 21 20 15 16 16 18 19 19 19 17 14 13 11 10 9 10 9
2 1 3 1 2 1 2 1 2 1 4 8 7 9 9 10 17 23 25 28 33 24 29 30 20 12 13 15 17 19 21 19 19 18 16 18 16 17 19 19 18 16 14 12 10 10 9 9 8
2 3 2 0 3 1 3 3 2 5 5 8 7 10 7 8 13 18 22 24 25 26 26 22 14 12 12 14 17 19 20 19 19 18 18 16 16 17 18 18 17 16 13 11 10 9 9 8 7
4 1 1 3 4 2 5 2 6 9 7 7 8 6 8 9 10 18 21 25 28 28 26 20 16 17 17 15 17 19 20 18 18 17 17 17 18 18 17 18 18 15 12 10 8 8 6 6 4
4 2 1 3 1 3 4 4 8 12 10 8 7 9 9 11 14 19 21 22 24 22 20 21 17 16 16 19 20 19 19 18 18 16 19 20 18 18 18 18 17 13 10 9 8 6 5 4 2
5 4 3 3 3 3 4 4 13 14 11 11 10 9 10 11 18 20 22 23 23 21 21 20 20 19 22 24 20 18 19 18 16 15 18 20 20 19 18 18 15 12 9 8 6 4 3 2 1
4 4 5 5 2 5 2 6 7 13 15 16 16 14 14 11 11 17 20 22 24 26 26 25 24 26 26 23 22 18 19 17 17 19 20 20 19 18 19 18 15 13 10 8 6 5 3 3 3
4 4 4 6 2 1 1 2 4 7 11 11 13 15 14 16 17 17 22 25 25 26 28 26 24 27 26 23 22 17 20 17 17 20 21 21 19 19 19 16 14 11 8 10 8 7 6 4 4
3 6 3 2 2 1 2 2 3 7 13 13 16 16 17 17 16 16 22 26 27 26 24 22 22 23 25 26 25 25 22 19 15 25 24 22 21 20 18 16 12 10 11 9 8 7 7 4 3
5 4 3 1 2 1 1 2 3 3 11 18 20 19 19 18 18 19 23 26 23 23 28 26 25 25 25 26 27 26 22 22 20 22 22 21 21 20 18 16 14 15 11 9 7 7 4 3 4
5 3 4 3 2 1 1 3 4 4 5 5 16 18 19 19 19 18 20 21 21 22 24 24 23 23 24 25 27 26 25 22 18 22 21 21 21 21 19 18 18 13 11 5 7 5 4 4 5
2 3 0 1 1 2 4 2 8 5 8 10 11 15 18 18 18 18 18 20 19 20 21 22 22 22 24 29 29 27 26 23 23 22 24 23 23 23 23 21 18 15 4 5 8 7 5 5 7
3 4 4 3 3 2 2 5 4 4 7 10 9 7 12 16 16 18 20 23 24 24 24 23 24 23 24 26 27 28 27 26 24 25 28 31 27 23 23 22 18 9 9 9 11 7 5 7 9
3 3 1 6 2 0 2 4 9 3 7 8 8 6 7 13 15 18 18 23 25 25 24 28 26 24 23 26 25 27 30 27 28 28 28 26 24 23 23 17 10 11 11 13 9 8 8 9 9
3 7 3 1 3 3 2 3 4 5 4 5 7 8 4 6 10 13 15 22 24 24 25 25 26 23 23 23 26 28 30 29 27 24 22 22 21 19 15 11 10 10 13 10 11 10 10 11 11
4 3 3 4 2 2 2 3 6 6 3 4 6 8 8 6 9 11 13 18 20 20 23 21 21 21 21 22 24 27 26 25 21 19 22 24 22 15 11 14 8 14 12 12 12 13 13 14 15
2 6 6 3 4 1 2 6 4 8 7 6 8 7 8 7 6 9 12 16 19 20 19 19 17 17 17 19 20 19 21 19 17 21 25 20 17 16 13 11 11 13 13 13 14 16 17 16 16
Wind_Direction
178 187 199 59 210 289 240 226 295 233 192 237 310 248 193 100 181 124 142 171 152 151 154 156 157 151 147 143 141 140 140 139 137 136 132 129 126 124 120 117 115 113 109 109 114 125 126 120 116
148 145 30 91 202 221 236 258 205 212 252 45 201 283 70 79 94 100 142 154 156 151 152 154 155 152 148 145 143 143 142 140 138 134 128 128 124 122 119 118 117 113 109 112 110 118 136 129 125
127 24 296 79 110 228 246 213 287 281 282 206 180 13 59 2 101 141 165 157 155 149 150 156 155 151 147 146 142 141 138 135 136 129 127 127 124 121 119 116 117 118 113 116 111 113 129 131 125
76 34 75 47 255 245 237 193 267 317 286 233 56 104 132 32 23 150 156 156 151 151 153 160 156 153 151 146 143 136 133 132 131 125 130 127 120 120 120 118 121 116 111 115 117 118 126 127 123
55 69 60 339 279 269 255 293 133 287 344 326 189 114 51 25 121 144 153 153 148 158 159 161 159 155 152 147 142 137 136 136 129 128 130 127 124 127 127 123 121 119 115 114 115 117 122 122 123
79 84 6 292 268 275 276 162 140 175 248 93 80 86 55 140 128 135 155 162 166 161 162 161 162 159 151 143 140 137 135 131 131 130 132 130 130 129 126 125 121 119 117 115 115 115 120 123 120
114 102 234 261 284 295 298 125 198 142 116 83 101 106 116 142 130 145 154 161 165 170 160 158 161 154 142 149 140 136 136 134 136 130 133 133 132 131 129 124 124 123 122 120 115 117 120 118 118
113 117 200 251 250 280 310 86 50 38 93 132 291 173 158 140 144 145 142 152 144 137 150 148 145 139 141 141 132 132 132 134 128 132 137 135 133 132 130 126 125 123 119 122 129 123 117 120 119
140 171 246 258 227 279 302 107 113 164 134 72 351 320 149 144 146 129 129 130 127 120 127 136 135 129 108 122 116 115 126 126 134 138 141 139 134 132 129 128 125 120 120 125 127 121 120 120 116
161 212 220 210 207 247 224 176 177 174 163 123 107 111 144 140 139 129 129 126 121 127 127 126 130 127 126 117 125 141 143 145 144 144 144 141 138 136 137 132 130 125 129 128 125 121 118 115 113
180 233 242 249 243 195 148 210 148 161 229 195 191 156 152 140 152 146 120 118 120 134 141 136 141 134 143 154 155 154 155 150 146 147 146 143 141 143 145 143 139 138 134 125 122 116 107 101 93
247 272 261 288 193 131 157 105 55 349 307 282 192 159 158 140 129 119 120 119 111 118 127 130 127 127 134 164 161 160 160 152 152 151 150 150 149 155 155 150 148 145 135 127 117 107 99 90 84
221 290 314 356 102 76 105 50 95 338 335 145 143 152 143 142 125 127 128 124 132 130 140 150 151 153 159 168 161 166 162 155 158 156 159 162 164 163 160 152 146 141 134 128 117 106 97 89 76
172 248 92 101 95 93 67 91 349 325 86 99 123 141 155 149 137 131 139 138 125 143 151 152 140 162 180 171 168 167 163 164 167 171 176 173 164 159 156 149 147 140 136 125 113 105 98 84 71
188 158 106 117 162 47 133 328 21 178 172 148 174 151 153 134 147 150 158 155 153 161 157 159 172 184 194 182 173 174 171 175 183 187 181 177 167 159 156 151 147 141 129 122 114 106 96 85 75
33 61 39 325 163 328 190 284 165 207 180 160 146 137 144 137 136 152 161 166 165 168 178 187 196 201 202 190 181 180 178 186 187 180 177 176 175 171 162 156 148 139 134 124 117 110 97 86 80
29 137 92 334 240 143 214 244 178 206 190 161 168 184 152 153 150 162 167 166 170 172 182 197 210 217 202 197 185 186 188 189 187 185 182 178 174 169 168 159 151 145 136 126 117 111 91 84 76
188 181 199 262 175 223 237 208 179 190 207 195 196 186 174 171 186 180 181 183 189 190 195 199 206 196 192 189 186 187 187 193 190 191 180 174 173 175 168 159 154 150 147 135 126 107 104 98 58
177 180 235 237 241 247 233 211 203 191 198 203 209 202 200 191 186 189 194 198 201 204 205 210 207 200 192 184 179 184 187 185 183 181 181 179 177 170 169 165 163 159 152 146 136 132 143 164 265
186 229 263 306 303 208 193 240 214 202 213 203 198 209 211 202 191 195 198 204 211 214 216 221 217 206 195 194 191 189 189 187 183 180 180 182 176 171 174 175 169 167 163 159 177 186 177 187 208
207 206 220 267 330 16 251 242 193 222 237 224 224 213 212 212 207 204 205 206 208 213 212 211 206 199 199 198 193 189 185 176 177 180 180 181 177 178 182 179 176 173 178 185 191 201 196 179 218
254 220 204 221 205 268 303 281 238 207 223 235 229 216 215 207 215 218 212 214 213 214 213 211 208 203 203 202 199 198 184 174 190 190 187 184 186 188 186 183 179 189 195 194 207 215 197 182 246
229 157 176 151 123 189 221 265 276 165 224 228 226 221 222 217 211 208 212 217 214 210 216 213 211 207 206 205 207 201 197 196 196 197 186 188 191 192 188 188 193 195 193 194 211 198 214 244 252
134 121 57 69 115 234 250 239 276 239 231 251 232 222 220 218 217 217 211 206 205 209 211 209 206 208 209 206 208 209 207 204 203 194 189 189 189 189 196 196 191 183 172 215 203 212 236 265 264
140 92 215 130 157 201 130 161 251 276 258 252 262 222 220 212 209 209 203 198 196 192 197 203 202 203 209 208 211 210 212 216 214 206 196 192 193 195 196 190 182 167 195 237 208 230 255 278 258
172 172 166 190 191 189 206 219 238 226 295 288 273 266 230 214 207 207 205 196 192 195 200 202 206 208 208 213 211 211 213 215 225 216 206 204 199 194 188 180 173 212 262 194 207 229 263 271 253
166 195 107 103 24 188 248 285 277 252 290 301 299 304 248 218 209 209 201 195 194 193 200 209 211 213 209 207 205 211 215 218 220 215 209 205 200 189 176 174 206 259 204 196 215 244 255 258 248
181 143 136 67 175 241 236 265 246 305 325 326 310 306 308 231 216 213 203 197 199 194 197 208 213 212 212 208 211 215 215 218 218 209 198 193 182 168 172 203 256 231 209 221 239 246 257 260 257
147 181 75 120 161 215 267 247 216 244 279 297 280 280 279 236 210 206 203 204 198 195 198 200 202 205 205 211 213 211 211 210 206 187 185 175 162 166 212 241 220 217 229 242 251 255 262 263 254
202 185 158 153 192 196 251 254 237 251 263 272 274 274 275 265 233 198 191 189 193 196 196 197 202 208 207 202 198 196 196 189 174 175 164 159 174 216 213 195 197 224 244 256 261 260 261 258 253